Theta_e
292 288 287 291 296 296 295 290 288 291 296 300 301 301 303 309 313 312 312 312 314 315 318 315 318 319 319 320 322 323 323 319 317 314 311 309 303 299 298 298 298 298 299 299
287 282 291 295 294 294 293 291 288 292 296 298 301 300 303 304 312 313 313 312 313 313 314 314 316 318 320 321 323 324 324 321 319 318 313 305 299 296 296 296 295 296 296 297
283 286 292 290 288 288 291 289 291 289 293 295 292 296 301 304 305 311 314 315 314 313 312 308 308 309 310 314 317 318 318 321 315 306 301 298 296 295 293 293 293 294 294 295
286 290 288 287 286 289 286 293 293 290 288 284 294 286 297 302 301 303 309 314 313 311 307 303 301 301 302 303 306 307 309 310 309 306 301 299 296 292 292 292 293 293 294 293
283 287 288 287 289 291 287 295 292 290 287 286 289 287 294 301 300 301 306 313 315 309 306 301 299 298 299 301 302 303 303 303 302 303 300 295 293 292 293 293 293 293 293 293
286 292 291 290 292 293 294 290 289 290 288 281 288 288 291 295 300 301 308 312 308 304 302 299 299 299 298 300 301 301 300 298 298 297 296 295 293 293 293 294 292 292 291 291
282 286 293 293 288 293 292 287 280 281 280 281 292 290 292 299 303 304 305 303 303 302 301 299 299 298 298 297 297 298 297 296 297 297 296 296 296 297 295 293 291 290 289 288
276 274 289 293 289 288 288 287 282 275 278 281 291 286 292 296 299 307 307 302 299 298 299 299 299 299 298 297 297 298 297 295 297 297 296 296 296 294 293 291 290 288 287 286
278 278 292 292 293 292 286 285 290 283 283 280 286 287 292 295 299 304 298 297 296 296 296 296 296 296 296 296 297 296 295 294 294 294 293 292 292 291 289 288 287 286 285 286
285 279 286 292 294 291 291 291 283 284 277 276 283 285 286 290 291 293 294 294 292 292 292 293 294 295 296 296 295 295 294 292 292 291 291 290 289 288 286 286 285 284 285 284
288 284 281 289 286 286 286 286 287 287 284 278 278 283 288 287 292 291 292 291 290 291 291 293 294 294 293 293 292 291 291 290 289 288 287 286 285 285 285 284 283 283 283 283
287 284 278 283 290 291 290 286 289 282 281 283 283 283 290 291 294 292 290 290 291 292 292 293 292 292 291 290 289 288 288 287 286 285 285 284 283 283 282 281 281 282 281 281
287 283 275 278 285 288 287 289 290 288 286 282 280 283 292 293 293 292 289 289 290 291 291 291 291 290 289 288 288 287 286 285 284 283 282 282 281 281 280 280 280 280 280 279
291 285 281 278 281 284 283 286 288 287 282 283 283 283 287 289 289 289 289 290 290 291 291 291 290 289 288 287 286 285 284 283 283 282 281 280 280 279 279 279 279 279 279 278
288 282 284 285 285 285 284 285 285 286 287 282 285 285 288 290 289 289 290 290 290 290 290 291 290 288 286 285 284 284 283 282 281 280 279 279 279 278 278 278 278 278 278 278
287 281 282 281 283 282 283 285 287 288 287 287 287 286 289 290 290 288 289 290 290 290 290 292 291 288 285 285 283 283 282 281 280 279 278 278 278 278 278 277 277 277 277 277
283 282 279 275 280 279 276 281 285 285 287 288 284 288 289 289 290 289 289 290 291 291 291 292 290 288 287 285 284 282 281 281 279 278 278 278 278 277 277 277 276 276 276 276
280 281 281 276 275 270 281 283 284 286 287 289 289 289 289 290 291 292 292 291 291 291 292 292 291 289 288 286 283 282 281 280 279 278 278 277 277 276 276 275 275 274 274 274
286 283 277 273 264 276 279 281 283 283 283 285 288 289 288 290 290 290 291 292 292 293 293 293 292 288 287 284 282 281 279 279 278 277 277 276 276 276 275 275 274 273 274 273
284 285 278 272 266 266 279 281 285 286 278 284 285 287 289 288 285 287 290 291 291 292 292 291 288 285 284 282 282 280 279 278 277 277 277 276 276 276 275 275 274 274 273 274
276 273 270 265 270 273 281 282 284 276 279 284 284 285 287 287 288 288 290 289 290 290 288 286 284 283 282 282 281 280 279 278 278 277 277 276 276 276 276 274 273 273 272 273
275 275 268 266 268 268 282 284 281 283 283 283 283 284 285 286 286 287 287 286 286 285 283 282 281 280 280 281 281 279 278 278 277 277 276 275 274 276 275 272 272 272 272 271
273 277 274 275 275 282 282 283 284 284 283 283 283 283 284 285 285 284 283 283 283 282 281 280 279 278 278 279 281 279 278 277 276 276 274 275 274 274 273 270 270 269 269 268
274 277 277 279 280 280 283 284 283 284 284 284 283 283 283 282 283 282 282 281 280 279 279 276 277 277 278 279 280 280 278 277 277 276 273 272 271 270 269 271 271 268 267 266
273 275 272 275 281 282 281 280 281 282 283 283 283 283 283 283 283 281 280 279 278 277 274 274 275 277 277 278 278 278 277 277 275 273 270 271 270 267 267 268 267 269 269 269
273 273 275 274 279 279 280 279 280 280 280 280 281 281 282 283 282 280 278 277 275 273 271 272 272 277 276 277 276 276 276 276 274 271 269 268 267 264 265 265 265 272 274 275
Wind_Speed
4 4 11 12 15 19 19 5 5 6 11 14 26 16 18 9 14 12 12 13 15 15 11 9 11 10 9 7 10 11 10 10 9 7 5 4 4 5 6 7 9 9 8 8
3 10 10 10 17 14 17 16 12 10 12 9 19 26 14 12 12 13 16 14 14 10 10 10 8 8 11 11 11 10 10 13 9 7 5 5 5 6 6 6 9 9 9 9
9 8 3 9 13 19 15 20 20 10 8 12 11 21 18 7 3 8 8 10 12 16 14 9 8 7 8 9 8 8 7 10 8 11 10 9 9 6 4 6 6 7 8 9
9 13 13 13 15 13 6 8 9 6 2 9 9 6 27 18 11 9 12 11 13 12 9 8 7 6 7 8 7 8 7 9 9 10 10 11 5 9 5 6 6 7 9 9
6 3 8 8 12 13 3 5 10 7 5 3 10 8 9 27 18 12 11 15 16 12 12 12 9 8 7 7 7 8 9 9 9 9 10 10 11 10 8 7 10 8 8 9
14 11 9 7 14 19 6 3 6 9 6 7 16 15 10 24 28 12 10 12 11 14 12 11 10 9 9 8 8 8 10 9 10 12 13 15 15 11 9 7 7 5 5 4
6 8 7 5 10 6 8 6 2 4 3 8 8 14 5 20 28 18 17 14 9 10 13 12 11 9 8 9 9 9 12 12 9 12 14 15 13 9 10 10 5 7 5 4
3 8 6 6 8 5 8 5 5 4 1 7 10 9 3 3 5 20 16 14 12 10 10 10 10 8 9 8 9 10 12 16 15 12 12 10 9 6 3 8 7 5 5 6
5 6 3 6 16 8 4 4 4 5 3 6 2 1 1 5 7 15 15 18 13 11 10 11 10 9 8 9 9 10 13 13 11 12 12 9 9 8 7 9 7 6 6 7
4 8 4 3 4 6 4 8 4 1 3 5 6 2 2 1 4 9 14 13 13 11 13 9 9 9 8 9 9 12 12 12 11 10 8 11 8 8 8 7 8 7 6 7
7 3 7 6 2 3 4 2 4 4 3 3 5 2 3 9 6 8 9 10 12 12 11 9 9 10 9 8 9 11 14 11 10 8 10 10 8 8 8 7 6 6 6 7
3 4 6 4 4 4 4 4 3 3 2 2 3 3 8 9 7 10 10 11 10 11 10 10 11 11 9 10 7 10 13 10 8 9 10 9 8 8 7 7 6 5 7 6
5 3 5 8 3 2 2 3 4 3 4 1 4 3 7 3 7 8 12 11 11 12 12 10 11 11 9 10 9 9 8 9 9 9 10 9 8 7 7 7 5 5 6 6
7 3 5 3 3 3 1 4 3 2 2 2 1 4 1 2 4 7 10 10 12 11 11 10 9 9 9 9 9 9 8 8 8 8 8 8 7 6 6 5 5 5 5 6
6 4 5 5 6 4 3 3 1 2 2 1 1 5 7 3 4 5 10 10 11 11 11 11 11 10 10 9 9 9 8 8 8 8 8 7 7 6 6 5 5 5 5 5
6 4 5 3 6 5 3 2 8 5 1 2 6 4 3 5 5 4 7 11 12 11 11 11 11 11 10 10 9 8 8 8 8 8 7 7 7 6 5 5 5 5 5 5
6 6 4 5 7 6 3 3 3 1 2 2 1 3 5 2 3 5 7 9 11 12 13 13 13 13 11 10 10 10 9 9 8 8 7 7 7 6 6 5 5 5 4 3
6 8 3 4 6 5 5 2 2 3 3 4 3 3 2 2 1 3 6 9 8 10 12 12 10 11 11 10 9 10 9 8 8 7 7 6 6 6 5 5 5 4 3 4
6 3 3 2 2 6 1 3 3 2 3 5 4 2 4 1 2 5 2 6 8 10 10 10 9 9 9 11 11 12 10 9 8 7 7 6 6 6 6 5 5 4 3 2
3 5 1 3 2 1 4 4 4 2 6 5 4 3 4 2 3 0 7 3 4 7 8 10 10 7 10 10 11 12 10 9 8 8 7 6 6 6 6 5 5 3 2 2
0 3 1 1 2 8 5 6 5 6 3 5 5 5 2 3 2 1 4 3 4 5 7 8 10 11 10 12 12 11 10 9 6 7 7 6 5 5 5 5 3 3 3 3
4 4 3 2 2 5 4 5 4 1 2 3 4 4 5 3 2 4 6 5 5 7 7 6 8 7 7 9 10 10 9 7 7 7 7 6 5 3 3 4 3 2 3 2
3 6 4 8 6 4 3 2 2 2 2 2 2 2 3 5 5 5 2 3 5 6 6 5 8 9 6 7 8 10 7 8 8 7 6 5 5 4 4 4 4 2 3 2
4 3 3 4 1 4 3 4 3 3 3 1 2 2 3 2 2 2 2 3 5 5 6 4 8 7 6 4 6 7 10 9 8 7 5 4 5 4 2 2 3 2 2 1
5 3 3 6 7 6 2 2 4 6 4 3 4 4 4 3 3 3 4 3 3 4 3 3 6 5 6 6 6 6 8 9 7 6 5 5 4 3 2 2 2 2 1 2
5 7 6 6 1 1 3 5 5 6 6 7 5 4 5 6 3 4 6 3 4 4 3 4 5 6 5 6 6 6 7 8 9 6 5 4 4 2 2 2 2 2 2 2
Wind_Direction
256 234 241 264 246 259 267 201 235 274 303 259 214 225 227 213 212 195 189 192 193 195 174 173 176 170 163 160 161 168 146 138 134 128 120 100 94 93 74 63 53 52 59 61
270 247 266 284 295 287 261 235 237 274 276 298 226 221 226 202 217 206 192 191 190 167 169 169 164 154 163 164 172 169 158 155 155 144 115 117 118 85 81 73 62 56 53 51
238 257 270 270 302 262 240 253 231 242 297 276 294 238 215 229 227 206 218 193 185 179 170 150 142 142 130 127 134 131 128 147 125 117 110 102 102 104 88 75 72 55 61 64
242 241 218 244 257 249 254 228 233 184 222 250 159 301 216 204 215 201 186 175 177 170 146 132 131 123 130 119 99 95 99 116 126 135 124 141 138 127 107 101 93 65 46 57
266 251 216 250 267 186 269 166 200 168 218 249 216 255 231 197 218 203 183 180 183 170 155 142 132 115 100 101 104 107 101 93 95 114 126 118 111 112 118 108 99 80 64 48
252 258 268 255 265 207 158 200 234 231 208 234 239 212 219 190 195 193 170 166 158 144 133 120 112 116 110 100 103 105 101 91 98 101 101 105 110 114 116 112 101 86 69 87
307 224 176 144 269 198 202 179 239 255 190 263 237 208 218 203 190 180 172 144 137 138 138 137 141 139 124 119 114 112 109 100 101 97 104 117 129 133 132 121 117 118 117 81
312 324 170 141 234 213 198 214 145 169 294 300 224 200 183 340 307 191 150 130 126 127 134 137 139 138 128 124 126 123 126 123 110 113 106 110 101 109 105 109 116 107 96 87
309 278 296 148 282 166 180 186 159 107 220 232 323 303 52 43 73 133 134 138 136 133 133 133 128 125 126 122 122 120 110 99 108 116 106 97 89 107 108 96 100 105 102 106
286 295 282 263 152 261 274 156 158 145 31 329 279 185 96 49 134 127 143 140 131 131 127 130 125 124 118 112 110 112 105 102 105 91 102 98 117 108 106 99 103 97 98 102
296 265 292 316 342 329 345 242 84 113 116 253 286 20 325 314 181 150 128 128 134 135 124 135 124 109 103 105 114 108 106 99 93 115 106 110 107 99 97 103 102 107 112 103
304 285 282 262 307 293 148 304 344 100 163 238 259 319 311 302 159 144 132 126 120 120 126 126 117 111 107 96 111 93 88 109 133 109 105 106 102 101 103 96 94 107 102 95
348 275 303 324 309 192 309 104 340 342 43 279 304 355 323 20 102 129 129 130 122 124 119 121 125 122 129 110 109 109 121 121 111 116 112 109 106 110 103 97 113 111 113 110
300 229 281 280 294 323 219 176 262 280 139 213 312 359 246 327 115 124 122 124 128 133 131 133 124 124 131 144 123 121 125 120 123 113 111 110 107 109 105 123 119 112 117 117
328 296 296 287 341 323 285 172 284 287 265 309 79 54 3 40 160 119 131 131 133 141 149 151 147 146 138 128 129 134 127 126 124 117 118 119 116 111 117 118 117 114 113 112
319 301 325 288 345 340 309 163 179 255 234 307 90 48 13 23 54 113 139 148 157 165 168 160 147 146 146 147 144 137 132 130 124 126 125 120 118 123 122 118 120 111 105 116
311 320 345 296 330 329 30 315 203 237 327 347 73 127 154 66 197 175 173 176 173 172 170 173 167 162 158 159 153 152 144 132 128 126 127 130 135 129 133 139 124 129 136 128
297 311 343 287 341 25 265 322 321 275 328 319 62 99 58 139 163 155 163 184 180 173 175 178 171 166 160 150 141 128 130 131 136 135 139 140 133 139 140 141 138 128 151 170
239 295 313 346 217 280 34 359 9 20 13 4 268 187 119 122 42 17 182 187 186 178 179 182 166 159 153 150 139 134 140 142 147 148 146 148 155 152 149 149 155 168 156 159
278 279 141 19 82 220 261 344 339 302 18 355 340 23 157 166 81 278 341 268 163 154 160 157 146 136 142 141 142 144 153 155 164 155 161 155 152 149 162 164 167 151 159 167
228 319 206 324 283 287 268 287 300 66 266 343 355 13 88 94 104 47 352 48 141 137 135 129 142 154 155 149 149 152 152 172 149 138 133 139 152 170 167 145 144 140 148 150
192 161 220 79 344 310 355 348 61 251 302 320 5 14 42 30 20 51 35 40 91 111 105 118 120 123 131 145 148 144 153 128 127 131 137 140 149 140 119 120 127 139 154 145
270 189 199 183 219 249 312 49 323 191 245 300 44 34 39 26 20 40 101 96 99 118 109 102 125 124 130 144 149 140 132 132 132 140 147 144 119 108 117 153 150 110 85 118
254 210 235 26 281 268 247 281 251 269 231 40 35 34 56 74 66 73 103 104 111 127 131 128 127 126 130 119 121 133 144 136 141 142 136 124 124 130 157 123 112 114 150 167
208 110 211 274 289 284 313 343 313 296 323 326 358 18 16 44 95 156 128 127 121 110 89 107 123 128 125 118 106 107 125 131 141 132 135 136 135 150 132 109 157 159 183 145
192 192 175 222 266 243 315 334 351 359 357 354 340 1 20 17 58 103 103 125 129 110 63 87 83 101 106 106 112 129 145 153 145 146 139 141 147 161 136 122 19 333 285 290